EW2348 Weather Reports


Display with metric or nautical units.
time (UTC)temp
F
wind
direction
speed
MPH
gust
MPH
rain 1hr
in
rain 24hr
in
rain mn
in
humidity
%
barometer
mb
20141129032004 32 116 3.0 6.0 0.00 0.00 0.00 64 1019.1
20141129025005 32 111 2.0 9.0 0.00 0.00 0.00 64 1019.1
20141129022004 32 134 3.0 8.0 0.00 0.00 0.00 63 1019.2
20141129021004 32 141 4.0 8.0 0.00 0.00 0.00 62 1019.3
20141129015019 32 133 5.0 11.0 0.00 0.00 0.00 63 1019.3
20141129011018 32 117 2.0 12.0 0.00 0.00 0.00 63 1019.9
20141129010018 32 116 6.0 12.0 0.00 0.00 0.00 63 1020.1
20141129004019 32 110 5.0 12.0 0.00 0.00 0.00 64 1020.4
20141129002018 32 132 4.0 11.0 0.00 0.00 0.00 64 1020.7
20141129001020 32 133 4.0 12.0 0.00 0.00 0.00 64 1020.9
20141129000018 32 119 4.0 8.0 0.00 0.00 0.00 64 1021.2
20141128235017 32 132 4.0 8.0 0.00 0.00 0.00 63 1021.3
20141128234017 32 139 3.0 9.0 0.00 0.00 0.00 63 1021.4
20141128233017 32 132 4.0 10.0 0.00 0.00 0.00 63 1021.5
20141128232018 32 134 8.0 11.0 0.00 0.00 0.00 63 1021.4
20141128231017 32 135 5.0 10.0 0.00 0.00 0.00 63 1021.7
20141128230017 32 127 5.0 9.0 0.00 0.00 0.00 62 1021.8
20141128224017 33 122 2.0 11.0 0.00 0.00 0.00 61 1022.1
20141128222016 33 133 3.0 8.0 0.00 0.00 0.00 60 1022.1
20141128221017 33 135 5.0 11.0 0.00 0.00 0.00 58 1022.2
20141128220017 34 125 6.0 11.0 0.00 0.00 0.00 57 1022.4
20141128212016 34 138 3.0 11.0 0.00 0.00 0.00 58 1023.1
20141128210016 34 149 2.0 14.0 0.00 0.00 0.00 57 1023.1
20141128205015 34 134 9.0 18.0 0.00 0.00 0.00 55 1022.6
20141128202015 35 135 7.0 11.0 0.00 0.00 0.00 56 1023.5
20141128201015 34 145 4.0 13.0 0.00 0.00 0.00 57 1023.6
20141128200015 34 135 6.0 13.0 0.00 0.00 0.00 56 1023.4
20141128194015 34 150 5.0 12.0 0.00 0.00 0.00 58 1023.6
20141128193015 34 157 5.0 11.0 0.00 0.00 0.00 57 1023.7
20141128192014 34 145 4.0 11.0 0.00 0.00 0.00 58 1023.9
20141128191015 34 144 4.0 11.0 0.00 0.00 0.00 57 1024.1
20141128190014 34 163 4.0 13.0 0.00 0.00 0.00 55 1024.1
20141128184014 35 135 5.0 17.0 0.00 0.00 0.00 54 1024.0
20141128183014 35 129 11.0 14.0 0.00 0.00 0.00 53 1024.3
20141128182014 35 138 8.0 17.0 0.00 0.00 0.00 57 1024.8
20141128181014 35 148 6.0 12.0 0.00 0.00 0.00 59 1024.9
20141128180014 36 144 8.0 11.0 0.00 0.00 0.00 58 1025.3
20141128174013 33 121 5.0 14.0 0.00 0.00 0.00 62 1025.8
20141128173014 32 144 9.0 16.0 0.00 0.09 0.00 65 1025.9
20141128172013 32 132 7.0 14.0 0.00 0.00 0.00 64 1026.3
20141128171013 32 147 7.0 14.0 0.00 0.00 0.00 63 1026.3
20141128165013 32 148 6.0 12.0 0.00 0.00 0.00 65 1026.6
20141128164013 31 161 4.0 11.0 0.00 0.00 0.00 67 1026.9
20141128163014 31 142 6.0 11.0 0.00 0.00 0.00 67 1027.3
20141128162012 31 154 8.0 11.0 0.00 0.00 0.00 70 1027.5
20141128161012 31 153 4.0 11.0 0.00 0.00 0.00 72 1027.8
20141128160013 30 142 7.0 12.0 0.00 0.00 0.00 74 1027.9
20141128155012 31 140 9.0 13.0 0.00 0.00 0.00 74 1028.0
20141128154012 31 162 8.0 12.0 0.00 0.00 0.00 73 1028.1
20141128152012 31 145 6.0 10.0 0.00 0.00 0.00 75 1027.9
20141128151012 29 149 4.0 9.0 0.00 0.00 0.00 78 1027.8
20141128150012 29 166 2.0 7.0 0.00 0.00 0.00 80 1028.0
20141128145011 29 140 3.0 7.0 0.00 0.00 0.00 80 1027.7
20141128144012 28 167 3.0 7.0 0.00 0.00 0.00 80 1028.0
20141128142011 26 134 2.0 5.0 0.00 9.67 0.00 83 1028.2
20141128141012 28 186 2.0 6.0 0.00 0.00 0.00 84 1028.1
20141128140016 28 154 2.0 6.0 0.00 0.00 0.00 85 1028.2
20141128135011 27 136 2.0 4.0 0.00 0.00 0.00 88 1028.2
20141128134011 26 137 3.0 4.0 0.00 0.00 0.00 88 1028.1
20141128133011 26 140 2.0 27.0 0.00 0.00 0.00 88 1028.4
20141128132011 26 152 2.0 4.0 0.00 0.00 0.00 88 1028.4
20141128130010 26 165 2.0 15.0 0.00 0.00 0.00 86 1028.6
20141128125011 26 144 2.0 4.0 0.00 0.00 0.00 85 1028.5
20141128124010 26 156 3.0 4.0 0.00 0.00 0.00 85 1028.5
20141128123010 26 156 2.0 4.0 0.00 0.00 0.00 84 1028.7
20141128122009 26 160 2.0 4.0 0.00 0.00 0.00 83 1028.7
20141128120010 26 135 2.0 27.0 0.00 0.00 0.00 80 1028.6
20141128115010 26 155 2.0 3.0 0.00 0.00 0.00 79 1028.4
20141128114009 26 142 1.0 3.0 0.00 0.00 0.00 78 1028.5
20141128113009 26 182 2.0 3.0 0.00 0.00 0.00 77 1028.3
20141128111009 25 168 2.0 4.0 0.00 0.00 0.00 78 1028.3
20141128105009 25 181 1.0 2.0 0.00 0.00 0.00 77 1028.4
20141128104010 25 181 1.0 3.0 0.00 0.00 0.00 77 1028.3
20141128102009 25 181 2.0 2.0 0.00 0.00 0.00 75 1028.3
20141128100008 25 207 2.0 3.0 0.00 0.00 0.00 78 1028.4
20141128094008 25 181 1.0 2.0 0.00 0.00 0.00 74 1027.7
20141128093008 25 181 1.0 3.0 0.00 0.00 0.00 75 1027.8
20141128092008 25 183 2.0 28.0 0.00 0.00 0.00 75 1027.9
20141128091007 24 181 2.0 28.0 0.00 0.00 0.00 75 1028.1
20141128090008 24 225 1.0 2.0 0.00 0.00 0.00 74 1028.1
20141128085008 24 181 2.0 2.0 0.00 0.00 0.00 75 1028.1
20141128084008 24 200 1.0 2.0 0.00 0.00 0.00 74 1028.2
20141128083007 24 225 1.0 2.0 0.00 0.00 0.00 74 1028.1
20141128081008 24 220 2.0 2.0 0.00 0.00 0.00 72 1028.0
20141128080007 25 224 2.0 2.0 0.00 0.00 0.00 72 1028.1
20141128075007 25 227 1.0 4.0 0.00 0.00 0.00 71 1028.1
20141128073007 25 244 8.0 5.0 0.00 0.00 0.00 70 1027.9
20141128065007 26 225 1.0 5.0 0.00 0.00 0.00 69 1027.8
20141128064007 26 218 2.0 8.0 0.00 0.00 0.00 70 1028.0
20141128063006 26 1 2.0 4.0 0.00 0.00 0.00 74 1027.8
20141128061007 27 299 2.0 6.0 0.00 0.00 0.00 80 1028.3
20141128060006 27 271 2.0 6.0 0.00 0.00 0.00 81 1028.3
20141128055006 27 205 3.0 5.0 0.00 0.00 0.00 83 1028.3
20141128052006 27 193 2.0 4.0 0.00 0.00 0.00 84 1028.2
20141128051006 27 216 2.0 5.0 0.00 0.00 0.00 83 1028.3
20141128043005 27 251 2.0 3.0 0.00 0.00 0.00 80 1028.3
20141128041005 27 232 4.0 7.0 0.00 0.00 0.00 78 1028.3
20141128040005 28 240 2.0 8.0 0.00 0.00 0.00 78 1028.3
20141128035004 28 258 5.0 8.0 0.00 0.00 0.00 79 1028.3
20141128034005 28 349 1.0 4.0 0.00 0.00 0.00 78 1028.3